This is the latest recevied weather packets stored in our database for station/object G0TQM-11. If no packets are shown the sender has not sent any weather packets the latest 10 day(s).
| Time | Temp. | Humidity | Pressure | Rain* | Wind** | Luminosity | Snow |
|---|---|---|---|---|---|---|---|
| 1787982105 | 20.56° C | 62% | 1000.3 hPa | - | - | - | - |
| 1787980905 | 20.56° C | 64% | 1000.4 hPa | - | - | - | - |
| 1787979704 | 20.56° C | 68% | 1000.4 hPa | - | - | - | - |
| 1787978504 | 20.56° C | 66% | 1000.4 hPa | - | - | - | - |
| 1787977304 | 20.56° C | 65% | 1000.6 hPa | - | - | - | - |
| 1787976104 | 20.56° C | 66% | 1000.8 hPa | - | - | - | - |
| 1787974904 | 20.56° C | 67% | 1000.7 hPa | - | - | - | - |
| 1787973704 | 20.56° C | 66% | 1001 hPa | - | - | - | - |
| 1787972504 | 20.56° C | 67% | 1000.9 hPa | - | - | - | - |
| 1787971303 | 20.56° C | 66% | 1001 hPa | - | - | - | - |
| 1787970103 | 20.56° C | 65% | 1001.1 hPa | - | - | - | - |
| 1787968903 | 20.56° C | 65% | 1001.3 hPa | - | - | - | - |
| 1787967703 | 20.56° C | 64% | 1001.5 hPa | - | - | - | - |
| 1787966503 | 20.56° C | 64% | 1001.4 hPa | - | - | - | - |
| 1787965303 | 21.11° C | 65% | 1001.6 hPa | - | - | - | - |
| 1787964103 | 21.11° C | 64% | 1001.5 hPa | - | - | - | - |
| 1787962903 | 20.56° C | 64% | 1001.6 hPa | - | - | - | - |
| 1787961702 | 20.56° C | 65% | 1001.7 hPa | - | - | - | - |
| 1787960510 | 20° C | 65% | 1001.7 hPa | - | - | - | - |
| 1787959302 | 20° C | 65% | 1001.6 hPa | - | - | - | - |
| 1787958102 | 20.56° C | 65% | 1001.8 hPa | - | - | - | - |
| 1787956902 | 20.56° C | 64% | 1001.9 hPa | - | - | - | - |
| 1787955702 | 20.56° C | 64% | 1001.9 hPa | - | - | - | - |
| 1787954502 | 20° C | 65% | 1002 hPa | - | - | - | - |
| 1787953301 | 20° C | 65% | 1002.1 hPa | - | - | - | - |
* Rain since midnight (hover to see other rain measurements)
** Current wind speed in m/s (hover to see current wind gust speed)